Погода в Осокино

Россия / Омская область     54°53′27″N   74°36′54″E
темп.,
°C
ветер,
м/с
пор.,
м/с
влажн.,
%
обл.,
%
осадки,
мм/ч
давл.,
гПа
погр.,
м
23 апреля, пт
пт2300:00+1юв34600 0.0 104555
03:000ю33645 0.0 104645
06:00−1ююв33607 0.0 104655
09:00+4ююв45445 0.0 1046677
12:00+6ю34370 0.0 10451434
15:00+8ю33330 0.0 10431494
18:00+8ю44330 0.0 10421452
21:00+5ююв34495 0.0 104267
24 апреля, сб
сб2400:00+3ююв3359100 0.0 104143
03:00+1ююв3466100 0.0 104057
06:00+1ю3370100 0.0 103950
09:00+5ююв455252 0.0 1038440
12:00+8ю453828 0.0 10361396
15:00+10ю4532100 0.0 10341675
18:00+10ю4534100 0.0 10321576
21:00+7ююв3648100 0.0 1032132
25 апреля, вс
вс2500:00+6ююв3754100 0.0 1031157
03:00+5юв4961100 0.0 1030188
06:00+4юв41160100 0.0 1029256
09:00+7ююв61149100 0.0 1028541
12:00+10ююв7935100 0.0 10271054
15:00+12ююв81032100 0.0 10251511
18:00+13юв71034100 0.0 10232115
21:00+9юв61345100 0.0 1022312
26 апреля, пн
пн2600:00+8юв71449100 0.0 1021345
03:00+7ююв61451100 0.0 1020354
06:00+5ююв51155100 0.0 1020253
09:00+8ю6853100 0.0 1019311
12:00+10ююз487623 0.5 1018472
15:00+15з91033100 0.3 10172375
18:00+14з6934100 0.3 10182245
21:00+9зюз4104992 0.0 1019175
27 апреля, вт
вт2700:00+8зсз495756 0.0 1019189
03:00+6зюз3666100 0.0 102091
06:00+6зюз3666100 0.0 102193
09:00+10зюз5847100 0.0 1021365
12:00+12юз5739100 0.0 10201078
15:00+9ююз6662100 0.1 1019954
18:00+7ююв71284100 1.8 1015534
21:00+7юв4790100 1.6 1012200